TimeMDT,TemperatureF,Dew PointF,Humidity,Sea Level PressureIn,VisibilityMPH,Wind Direction,Wind SpeedMPH,Gust SpeedMPH,PrecipitationIn,Events,Conditions,WindDirDegrees,DateUTC
12:15 AM,41.4,33.6,74,29.99,10.0,WSW,6.9,-,N/A,,Clear,250,2013-03-30 06:15:00
12:35 AM,41.0,33.3,74,29.99,10.0,West,3.5,-,N/A,,Clear,260,2013-03-30 06:35:00
12:55 AM,39.6,33.1,78,29.99,10.0,West,6.9,-,N/A,,Clear,260,2013-03-30 06:55:00
1:15 AM,40.5,33.1,75,30.00,10.0,WSW,4.6,-,N/A,,Clear,240,2013-03-30 07:15:00
1:35 AM,46.2,32.9,60,29.99,10.0,Calm,Calm,-,N/A,,Clear,0,2013-03-30 07:35:00
1:55 AM,46.8,32.9,59,29.99,10.0,Calm,Calm,-,N/A,,Clear,0,2013-03-30 07:55:00
2:15 AM,46.4,32.5,59,29.99,10.0,SW,4.6,-,N/A,,Clear,220,2013-03-30 08:15:00
2:35 AM,45.0,33.1,63,29.98,10.0,NNW,17.3,-,N/A,,Scattered Clouds,330,2013-03-30 08:35:00
2:55 AM,45.9,36.5,70,29.99,10.0,NNW,19.6,-,N/A,,Scattered Clouds,330,2013-03-30 08:55:00
3:15 AM,45.5,36.7,71,30.00,10.0,NNW,15.0,-,N/A,,Clear,330,2013-03-30 09:15:00
3:35 AM,47.7,37.0,67,30.00,10.0,NNW,17.3,-,N/A,,Clear,340,2013-03-30 09:35:00
3:55 AM,48.4,36.5,64,30.00,10.0,NNW,17.3,-,N/A,,Clear,340,2013-03-30 09:55:00
4:15 AM,47.7,36.0,64,30.00,10.0,North,18.4,-,N/A,,Clear,360,2013-03-30 10:15:00
4:35 AM,46.6,35.6,66,30.01,10.0,North,17.3,-,N/A,,Clear,360,2013-03-30 10:35:00
4:55 AM,46.2,34.3,63,30.01,10.0,North,13.8,-,N/A,,Clear,10,2013-03-30 10:55:00
5:15 AM,47.3,32.9,57,30.02,10.0,NNE,10.4,-,N/A,,Clear,20,2013-03-30 11:15:00
5:35 AM,46.6,32.0,57,30.03,10.0,NNE,5.8,-,N/A,,Clear,20,2013-03-30 11:35:00
5:55 AM,45.5,32.0,59,30.04,10.0,Calm,Calm,-,N/A,,Clear,0,2013-03-30 11:55:00
6:15 AM,44.8,32.0,61,30.04,10.0,Calm,Calm,-,N/A,,Clear,0,2013-03-30 12:15:00
6:35 AM,45.5,32.0,59,30.05,10.0,Calm,Calm,-,N/A,,Clear,0,2013-03-30 12:35:00
6:55 AM,44.2,31.8,62,30.06,10.0,Calm,Calm,-,N/A,,Clear,0,2013-03-30 12:55:00
7:15 AM,43.5,32.0,64,30.07,10.0,NW,6.9,-,N/A,,Clear,310,2013-03-30 13:15:00
7:35 AM,45.7,33.4,62,30.08,10.0,WSW,6.9,-,N/A,,Clear,250,2013-03-30 13:35:00
7:55 AM,46.2,34.3,63,30.08,10.0,West,4.6,-,N/A,,Clear,280,2013-03-30 13:55:00
8:15 AM,48.6,33.8,57,30.08,10.0,NNW,9.2,-,N/A,,Clear,330,2013-03-30 14:15:00
8:35 AM,50.7,33.6,52,30.08,10.0,NW,8.1,-,N/A,,Clear,320,2013-03-30 14:35:00
8:55 AM,53.2,33.1,46,30.08,10.0,North,8.1,-,N/A,,Clear,350,2013-03-30 14:55:00
9:15 AM,54.0,34.0,47,30.08,10.0,NNW,13.8,-,N/A,,Clear,340,2013-03-30 15:15:00
9:35 AM,55.2,34.9,46,30.07,10.0,NNW,13.8,-,N/A,,Clear,340,2013-03-30 15:35:00
9:55 AM,56.3,34.5,44,30.07,10.0,North,15.0,18.4,N/A,,Clear,350,2013-03-30 15:55:00
10:15 AM,57.4,34.2,42,30.07,10.0,North,12.7,17.3,N/A,,Clear,10,2013-03-30 16:15:00
10:35 AM,58.5,33.4,39,30.07,10.0,North,13.8,-,N/A,,Clear,10,2013-03-30 16:35:00
10:55 AM,59.0,32.9,37,30.07,10.0,NNE,9.2,-,N/A,,Scattered Clouds,30,2013-03-30 16:55:00
11:15 AM,59.4,32.9,37,30.07,10.0,North,10.4,-,N/A,,Clear,10,2013-03-30 17:15:00
11:35 AM,59.9,32.9,36,30.07,10.0,North,6.9,-,N/A,,Clear,360,2013-03-30 17:35:00
11:55 AM,60.4,33.1,36,30.06,10.0,WNW,3.5,-,N/A,,Scattered Clouds,300,2013-03-30 17:55:00
12:15 PM,60.8,33.6,36,30.05,10.0,NE,10.4,-,N/A,,Scattered Clouds,40,2013-03-30 18:15:00
12:35 PM,61.2,32.9,35,30.04,10.0,NNW,9.2,-,N/A,,Scattered Clouds,340,2013-03-30 18:35:00
12:55 PM,62.4,32.7,33,30.04,10.0,North,12.7,17.3,N/A,,Mostly Cloudy,360,2013-03-30 18:55:00
1:15 PM,60.1,32.4,35,30.04,10.0,North,9.2,-,N/A,,Overcast,360,2013-03-30 19:15:00
1:35 PM,60.4,32.2,35,30.04,10.0,NNE,5.8,-,N/A,,Overcast,30,2013-03-30 19:35:00
1:55 PM,61.0,32.5,34,30.03,10.0,North,12.7,-,N/A,,Overcast,360,2013-03-30 19:55:00
2:15 PM,60.4,32.2,35,30.02,10.0,North,12.7,17.3,N/A,,Mostly Cloudy,350,2013-03-30 20:15:00
2:35 PM,62.2,33.4,34,30.02,10.0,North,8.1,18.4,N/A,,Mostly Cloudy,360,2013-03-30 20:35:00
2:55 PM,63.0,33.3,33,30.01,10.0,NNW,12.7,19.6,N/A,,Scattered Clouds,340,2013-03-30 20:55:00
3:15 PM,61.9,34.0,35,30.01,10.0,North,15.0,20.7,N/A,,Mostly Cloudy,10,2013-03-30 21:15:00
3:35 PM,59.9,34.7,39,30.02,10.0,North,18.4,24.2,N/A,,Mostly Cloudy,10,2013-03-30 21:35:00
3:55 PM,59.7,36.9,43,30.02,10.0,North,19.6,-,N/A,,Mostly Cloudy,10,2013-03-30 21:55:00
4:15 PM,57.9,38.3,48,30.03,10.0,North,19.6,-,N/A,,Overcast,10,2013-03-30 22:15:00
4:35 PM,55.4,40.8,58,30.03,10.0,North,17.3,21.9,N/A,Rain,Light Rain,350,2013-03-30 22:35:00
4:55 PM,54.5,38.7,55,30.03,10.0,North,17.3,-,N/A,,Overcast,360,2013-03-30 22:55:00
5:15 PM,55.8,37.2,50,30.03,10.0,North,11.5,15.0,N/A,,Mostly Cloudy,360,2013-03-30 23:15:00
5:35 PM,56.1,36.5,48,30.03,10.0,North,10.4,-,N/A,,Mostly Cloudy,350,2013-03-30 23:35:00
5:55 PM,57.0,36.0,45,30.04,10.0,NW,12.7,17.3,N/A,,Mostly Cloudy,320,2013-03-30 23:55:00
6:15 PM,56.8,35.1,44,30.05,10.0,NNW,13.8,-,N/A,,Overcast,330,2013-03-31 00:15:00
6:35 PM,55.8,34.2,44,30.05,10.0,NNW,9.2,-,N/A,,Scattered Clouds,340,2013-03-31 00:35:00
6:55 PM,49.5,36.7,61,30.07,10.0,North,18.4,25.3,N/A,,Mostly Cloudy,10,2013-03-31 00:55:00
7:15 PM,49.1,37.2,64,30.08,10.0,North,13.8,-,N/A,,Overcast,360,2013-03-31 01:15:00
7:35 PM,48.2,37.8,67,30.08,10.0,North,12.7,-,N/A,,Overcast,360,2013-03-31 01:35:00
7:55 PM,49.1,37.9,65,30.09,10.0,NNW,15.0,-,N/A,Rain,Light Rain,340,2013-03-31 01:55:00
8:15 PM,48.4,37.8,67,30.10,10.0,NNW,10.4,-,N/A,,Overcast,330,2013-03-31 02:15:00
8:35 PM,46.8,37.2,69,30.11,10.0,NNW,10.4,-,N/A,,Scattered Clouds,340,2013-03-31 02:35:00
8:55 PM,46.0,38.5,75,30.13,10.0,North,15.0,-,N/A,,Clear,350,2013-03-31 02:55:00
9:15 PM,45.0,38.3,77,30.12,10.0,NNW,6.9,-,N/A,,Scattered Clouds,330,2013-03-31 03:15:00
9:35 PM,41.4,36.9,84,30.13,10.0,NW,6.9,-,N/A,,Clear,310,2013-03-31 03:35:00
9:55 PM,39.4,35.8,87,30.14,10.0,WNW,3.5,-,N/A,,Clear,300,2013-03-31 03:55:00
10:15 PM,39.7,36.0,86,30.14,10.0,NW,8.1,-,N/A,,Clear,320,2013-03-31 04:15:00
10:35 PM,38.1,34.9,88,30.14,10.0,NW,8.1,-,N/A,,Clear,310,2013-03-31 04:35:00
10:55 PM,37.4,33.8,87,30.14,10.0,WNW,5.8,-,N/A,,Clear,300,2013-03-31 04:55:00
11:15 PM,36.3,33.3,89,30.13,10.0,SW,4.6,-,N/A,,Clear,230,2013-03-31 05:15:00
11:35 PM,36.7,34.0,90,30.14,10.0,West,6.9,-,N/A,,Clear,260,2013-03-31 05:35:00
11:55 PM,36.9,34.0,89,30.13,10.0,West,8.1,-,N/A,,Clear,260,2013-03-31 05:55:00